Terug naar catalogus

COSMOS 2251 DEB

ActiefLEO
NORAD 35586·DEBRIS·🇷🇺 Russia

Gelanceerd Jun 16, 1993 vanaf Plesetsk Cosmodrome

Loading…

Volgende Passages (komende 24 uur)

TLE

VerouderendSource: Space-Track

Epoch: Sep 9, 2026, 04:46 UTC

1 35586U 93036AMD 26252.19928096  .00000371  00000-0  35564-3 0  9996
2 35586  74.0213 229.1125 0401767  47.4591 328.9021 13.52342349640385

Volg COSMOS 2251 DEB in realtime met AllMySat

Download on the App Store